• In Deutschland
  • Länderverzeichnis
  • Für 7 Tage
  • Wassertemperatur
  • Satellitenkarten
  • Wetterkarte
  • Widgets
  • user-avatar
    Anmelden

    Stündliche Wetter Kaprun

    Heute, 25 Juli, Dienstag

    Zeit Temperatur Niederschläge Wind Luftdruck Luftfeuchtigkeit
    00:00 +2°C° 0,1 mm 2 m/S 592 mmHg 96%
    01:00 +2°C° 0 mm 2 m/S 592 mmHg 96%
    02:00 +1°C° 0,1 mm 2 m/S 592 mmHg 95%
    03:00 +1°C° 0,1 mm 2 m/S 592 mmHg 94%
    04:00 +1°C° 0,1 mm 2 m/S 591 mmHg 94%
    05:00 +2°C° 0,2 mm 2 m/S 592 mmHg 93%
    06:00 +3°C° 0,2 mm 2 m/S 592 mmHg 92%
    07:00 +6°C° 0 mm 1 m/S 593 mmHg 89%
    08:00 +7°C° 0,2 mm 1 m/S 593 mmHg 83%
    09:00 +7°C° 0,2 mm 2 m/S 593 mmHg 76%
    10:00 +8°C° 0,2 mm 2 m/S 594 mmHg 69%
    11:00 +8°C° 0,5 mm 2 m/S 594 mmHg 69%
    12:00 +9°C° 0,5 mm 2 m/S 594 mmHg 69%
    13:00 +9°C° 0 mm 2 m/S 594 mmHg 70%
    14:00 +8°C° 1 mm 2 m/S 594 mmHg 73%
    15:00 +8°C° 1 mm 2 m/S 593 mmHg 76%
    16:00 +7°C° 1 mm 2 m/S 593 mmHg 79%
    17:00 +7°C° 0,6 mm 2 m/S 593 mmHg 82%
    18:00 +7°C° 0,6 mm 1 m/S 593 mmHg 86%
    19:00 +6°C° 0,6 mm 1 m/S 593 mmHg 90%
    20:00 +6°C° 0,3 mm 1 m/S 592 mmHg 92%
    21:00 +5°C° 0,3 mm 1 m/S 592 mmHg 93%
    22:00 +4°C° 0,3 mm 1 m/S 592 mmHg 95%
    23:00 +4°C° 0,2 mm 1 m/S 592 mmHg 95%

    Morgen, 26 Juli, Mittwoch

    Zeit Temperatur Niederschläge Wind Luftdruck Luftfeuchtigkeit
    00:00 +3°C° 0,2 mm 1 m/S 591 mmHg 94%
    01:00 +3°C° 0,2 mm 1 m/S 591 mmHg 94%
    02:00 +3°C° 0,2 mm 1 m/S 591 mmHg 93%
    03:00 +3°C° 0,2 mm 1 m/S 591 mmHg 93%
    04:00 +3°C° 0,2 mm 1 m/S 591 mmHg 92%
    05:00 +3°C° 0,8 mm 1 m/S 591 mmHg 92%
    06:00 +4°C° 0,8 mm 1 m/S 591 mmHg 92%
    07:00 +4°C° 0,8 mm 1 m/S 591 mmHg 92%
    08:00 +5°C° 1,2 mm 1 m/S 592 mmHg 91%
    09:00 +6°C° 1,2 mm 1 m/S 592 mmHg 89%
    10:00 +5°C° 1,2 mm 2 m/S 593 mmHg 88%
    11:00 +6°C° 0,8 mm 2 m/S 593 mmHg 85%
    12:00 +6°C° 0,8 mm 2 m/S 594 mmHg 83%
    13:00 +7°C° 0,8 mm 2 m/S 594 mmHg 80%
    14:00 +7°C° 0,4 mm 2 m/S 594 mmHg 79%
    15:00 +7°C° 0,4 mm 2 m/S 595 mmHg 78%
    16:00 +7°C° 0,4 mm 2 m/S 595 mmHg 77%
    17:00 +6°C° 0,4 mm 2 m/S 594 mmHg 80%
    18:00 +6°C° 0,4 mm 2 m/S 594 mmHg 84%
    19:00 +5°C° 0,4 mm 2 m/S 594 mmHg 87%
    20:00 +4°C° 0,6 mm 2 m/S 594 mmHg 89%
    21:00 +4°C° 0,6 mm 2 m/S 594 mmHg 91%
    22:00 +3°C° 0,6 mm 2 m/S 594 mmHg 92%
    23:00 +3°C° 0,8 mm 2 m/S 594 mmHg 93%

    übermorgen, 27 Juli, Donnerstag

    Zeit Temperatur Niederschläge Wind Luftdruck Luftfeuchtigkeit
    00:00 +3°C° 0,8 mm 2 m/S 595 mmHg 93%
    01:00 +3°C° 0,8 mm 2 m/S 595 mmHg 93%
    02:00 +3°C° 0,2 mm 2 m/S 595 mmHg 93%
    03:00 +3°C° 0,2 mm 2 m/S 595 mmHg 93%
    04:00 +3°C° 0,2 mm 2 m/S 595 mmHg 93%
    05:00 +4°C° 0 mm 2 m/S 595 mmHg 89%
    06:00 +5°C° 0 mm 2 m/S 596 mmHg 86%
    07:00 +6°C° 0 mm 2 m/S 596 mmHg 82%
    08:00 +8°C° 0 mm 2 m/S 597 mmHg 70%
    09:00 +11°C° 0 mm 1 m/S 598 mmHg 57%
    10:00 +13°C° 0 mm 1 m/S 599 mmHg 45%
    11:00 +13°C° 0,1 mm 1 m/S 599 mmHg 48%
    12:00 +13°C° 0,1 mm 1 m/S 598 mmHg 51%
    13:00 +13°C° 0,1 mm 1 m/S 598 mmHg 54%
    14:00 +12°C° 0,4 mm 1 m/S 598 mmHg 61%
    15:00 +12°C° 0,4 mm 1 m/S 598 mmHg 68%
    16:00 +11°C° 0,4 mm 1 m/S 597 mmHg 75%
    17:00 +10°C° 0,9 mm 1 m/S 597 mmHg 80%
    18:00 +9°C° 0,9 mm 1 m/S 597 mmHg 84%
    19:00 +9°C° 0,9 mm 1 m/S 597 mmHg 89%
    20:00 +8°C° 0,4 mm 1 m/S 597 mmHg 89%
    21:00 +7°C° 0,4 mm 1 m/S 597 mmHg 89%
    22:00 +7°C° 0,4 mm 1 m/S 597 mmHg 90%
    23:00 +6°C° 0,1 mm 1 m/S 596 mmHg 90%

    28 Juli, Freitag

    Zeit Temperatur Niederschläge Wind Luftdruck Luftfeuchtigkeit
    00:00 +6°C° 0,1 mm 1 m/S 596 mmHg 90%
    01:00 +6°C° 0,1 mm 1 m/S 596 mmHg 90%
    02:00 +6°C° 0,3 mm 1 m/S 596 mmHg 90%
    03:00 +6°C° 0,3 mm 1 m/S 596 mmHg 91%
    04:00 +6°C° 0,3 mm 1 m/S 596 mmHg 91%
    05:00 +7°C° 0,5 mm 1 m/S 597 mmHg 89%
    06:00 +8°C° 0,5 mm 1 m/S 598 mmHg 86%
    07:00 +10°C° 0,5 mm 1 m/S 598 mmHg 84%
    08:00 +11°C° 0,4 mm 1 m/S 599 mmHg 80%
    09:00 +13°C° 0,4 mm 1 m/S 600 mmHg 77%
    10:00 +14°C° 0,4 mm 1 m/S 601 mmHg 73%
    11:00 +14°C° 0,6 mm 1 m/S 601 mmHg 72%
    12:00 +15°C° 0,6 mm 1 m/S 601 mmHg 71%
    13:00 +15°C° 0,6 mm 1 m/S 601 mmHg 70%
    14:00 +15°C° 0,5 mm 2 m/S 601 mmHg 73%
    15:00 +14°C° 0,5 mm 2 m/S 601 mmHg 76%
    16:00 +14°C° 0,5 mm 2 m/S 601 mmHg 79%
    17:00 +13°C° 0,2 mm 2 m/S 601 mmHg 83%
    18:00 +12°C° 0,2 mm 1 m/S 601 mmHg 88%
    19:00 +12°C° 0,2 mm 1 m/S 601 mmHg 93%
    20:00 +10°C° 0 mm 1 m/S 601 mmHg 94%
    21:00 +9°C° 0 mm 1 m/S 601 mmHg 96%
    22:00 +8°C° 0 mm 1 m/S 601 mmHg 97%
    23:00 +8°C° 0 mm 1 m/S 600 mmHg 97%

    29 Juli, Samstag

    Zeit Temperatur Niederschläge Wind Luftdruck Luftfeuchtigkeit
    00:00 +8°C° 0 mm 1 m/S 600 mmHg 96%
    01:00 +7°C° 0 mm 1 m/S 600 mmHg 96%
    02:00 +7°C° 0 mm 1 m/S 600 mmHg 96%
    03:00 +7°C° 0 mm 1 m/S 600 mmHg 96%
    04:00 +7°C° 0 mm 1 m/S 600 mmHg 95%
    05:00 +9°C° 0 mm 1 m/S 601 mmHg 94%
    06:00 +10°C° 0 mm 1 m/S 601 mmHg 92%
    07:00 +12°C° 0 mm 1 m/S 602 mmHg 90%
    08:00 +14°C° 0 mm 1 m/S 603 mmHg 81%
    09:00 +15°C° 0 mm 1 m/S 604 mmHg 73%
    10:00 +17°C° 0 mm 2 m/S 605 mmHg 65%
    11:00 +17°C° 0,4 mm 2 m/S 604 mmHg 68%
    12:00 +17°C° 0,4 mm 2 m/S 604 mmHg 71%
    13:00 +17°C° 0,4 mm 2 m/S 604 mmHg 75%
    14:00 +16°C° 1,2 mm 2 m/S 604 mmHg 78%
    15:00 +16°C° 1,2 mm 2 m/S 603 mmHg 81%
    16:00 +15°C° 1,2 mm 1 m/S 603 mmHg 85%
    17:00 +14°C° 2,3 mm 1 m/S 603 mmHg 89%
    18:00 +13°C° 2,3 mm 1 m/S 602 mmHg 93%
    19:00 +12°C° 2,3 mm 1 m/S 602 mmHg 97%
    20:00 +12°C° 3,9 mm 1 m/S 602 mmHg 97%
    21:00 +11°C° 3,9 mm 1 m/S 602 mmHg 98%
    22:00 +11°C° 3,9 mm 1 m/S 602 mmHg 98%
    23:00 +11°C° 0,6 mm 1 m/S 602 mmHg 97%

    30 Juli, Sonntag

    Zeit Temperatur Niederschläge Wind Luftdruck Luftfeuchtigkeit
    00:00 +10°C° 0,6 mm 1 m/S 602 mmHg 97%
    01:00 +10°C° 0,6 mm 1 m/S 601 mmHg 97%
    02:00 +10°C° 0,3 mm 1 m/S 601 mmHg 96%
    03:00 +9°C° 0,3 mm 1 m/S 601 mmHg 96%
    04:00 +9°C° 0,3 mm 1 m/S 601 mmHg 96%
    05:00 +10°C° 0,3 mm 1 m/S 601 mmHg 95%
    06:00 +11°C° 0,3 mm 1 m/S 602 mmHg 93%
    07:00 +12°C° 0,3 mm 1 m/S 602 mmHg 92%
    08:00 +15°C° 0,4 mm 1 m/S 603 mmHg 80%
    09:00 +18°C° 0,4 mm 1 m/S 604 mmHg 68%
    10:00 +20°C° 0,4 mm 1 m/S 605 mmHg 57%
    11:00 +21°C° 0,9 mm 1 m/S 605 mmHg 55%
    12:00 +21°C° 0,9 mm 1 m/S 604 mmHg 53%
    13:00 +22°C° 0,9 mm 1 m/S 604 mmHg 51%
    14:00 +21°C° 1,3 mm 1 m/S 604 mmHg 56%
    15:00 +20°C° 1,3 mm 1 m/S 604 mmHg 61%
    16:00 +19°C° 1,3 mm 1 m/S 603 mmHg 66%
    17:00 +18°C° 0,7 mm 1 m/S 603 mmHg 73%
    18:00 +15°C° 0,7 mm 0 m/S 603 mmHg 79%
    19:00 +14°C° 0,7 mm 0 m/S 602 mmHg 86%
    20:00 +12°C° 0,3 mm 0 m/S 602 mmHg 87%
    21:00 +12°C° 0,3 mm 1 m/S 602 mmHg 89%
    22:00 +11°C° 0,3 mm 1 m/S 601 mmHg 90%
    23:00 +10°C° 0 mm 1 m/S 601 mmHg 90%
    Mehr zeigen